Location: Fort Wayne
(41.1310°N, 85.1290°W)
Time: 03:37:54
(UTC-04:00)

Cosmos 1953 - Visible Passes

Search period start: 01 September 2014 00:00
Search period end: 11 September 2014 00:00
Orbit: 549 x 571 km, 82.5° (Epoch: 31 August)

Date Brightness Start Highest point End Pass type
(mag) Time Alt. Az. Time Alt. Az. Time Alt. Az.
01 Sep 5.3 23:51:01 14° N 23:51:01 14° N 23:51:41 10° N visible
02 Sep 5.3 23:49:49 14° NNW 23:49:49 14° NNW 23:50:32 10° N visible
03 Sep 5.3 23:48:36 14° NNW 23:48:36 14° NNW 23:49:22 10° NNW visible
04 Sep 4.9 22:11:26 10° NE 22:11:26 10° NE 22:11:29 10° NE visible
04 Sep 5.3 23:47:21 14° NNW 23:47:21 14° NNW 23:48:10 10° NNW visible
05 Sep 4.7 22:10:09 13° NE 22:10:09 13° NE 22:10:37 10° NNE visible
05 Sep 5.4 23:46:04 14° NNW 23:46:04 14° NNW 23:46:55 10° NNW visible
06 Sep 4.5 22:08:49 15° NE 22:08:49 15° NE 22:09:43 10° NNE visible
06 Sep 5.4 23:44:44 14° NW 23:44:44 14° NW 23:45:37 10° NNW visible
07 Sep 4.3 22:07:27 19° NNE 22:07:27 19° NNE 22:08:46 10° NNE visible
07 Sep 5.5 23:43:21 13° NW 23:43:21 13° NW 23:44:13 10° NW visible
08 Sep 3.9 22:06:01 24° NNE 22:06:01 24° NNE 22:07:48 10° NNE visible
08 Sep 5.5 23:41:55 12° NW 23:41:55 12° NW 23:42:42 10° NW visible
09 Sep 3.5 22:04:31 31° NNE 22:04:31 31° NNE 22:06:48 10° NNE visible
09 Sep 5.6 23:40:24 11° WNW 23:40:24 11° WNW 23:40:51 10° NW visible
10 Sep 3.0 22:02:55 44° NNE 22:02:55 44° NNE 22:05:46 10° NNE visible
